QPF
0.00 0.00 0.00 0.00 0.00 0.00 0.00 0.00 0.01 0.00 0.00 0.00 0.00 0.00 0.00 0.00 0.01 0.01 0.02 0.03 0.05 0.05 0.05 0.05 0.07 0.07 0.08 0.09 0.12 0.13 0.13 0.13 0.13 0.10 0.07 0.05 0.03 0.03
0.00 0.00 0.00 0.00 0.00 0.00 0.00 0.00 0.00 0.00 0.00 0.00 0.00 0.00 0.00 0.00 0.00 0.01 0.02 0.04 0.06 0.07 0.07 0.05 0.06 0.05 0.03 0.02 0.03 0.03 0.03 0.03 0.04 0.04 0.02 0.01 0.01 0.01
0.03 0.01 0.00 0.00 0.00 0.00 0.00 0.00 0.00 0.00 0.00 0.00 0.00 0.01 0.01 0.01 0.00 0.01 0.01 0.03 0.05 0.09 0.08 0.06 0.03 0.03 0.02 0.01 0.01 0.01 0.01 0.01 0.01 0.01 0.01 0.00 0.00 0.00
0.09 0.04 0.01 0.00 0.00 0.00 0.00 0.00 0.00 0.00 0.00 0.00 0.00 0.01 0.02 0.02 0.01 0.01 0.03 0.04 0.05 0.06 0.06 0.05 0.03 0.02 0.01 0.01 0.00 0.00 0.00 0.00 0.00 0.00 0.00 0.00 0.00 0.00
0.14 0.13 0.08 0.03 0.01 0.00 0.00 0.00 0.00 0.00 0.00 0.00 0.01 0.01 0.03 0.04 0.03 0.02 0.03 0.05 0.04 0.04 0.04 0.04 0.02 0.01 0.00 0.00 0.00 0.00 0.00 0.00 0.00 0.00 0.00 0.00 0.00 0.00
0.07 0.12 0.13 0.10 0.04 0.02 0.00 0.00 0.00 0.00 0.00 0.00 0.01 0.02 0.04 0.06 0.05 0.03 0.04 0.05 0.04 0.03 0.02 0.01 0.00 0.00 0.00 0.00 0.00 0.00 0.00 0.00 0.00 0.00 0.00 0.00 0.00 0.00
0.01 0.03 0.05 0.07 0.07 0.04 0.01 0.00 0.00 0.00 0.00 0.01 0.02 0.03 0.05 0.08 0.08 0.05 0.03 0.03 0.04 0.02 0.01 0.00 0.00 0.00 0.00 0.00 0.00 0.00 0.00 0.00 0.00 0.00 0.00 0.00 0.00 0.00
0.00 0.00 0.01 0.03 0.03 0.03 0.02 0.01 0.00 0.00 0.00 0.00 0.02 0.03 0.04 0.05 0.04 0.03 0.03 0.02 0.04 0.03 0.01 0.00 0.00 0.00 0.00 0.00 0.00 0.00 0.00 0.00 0.00 0.00 0.00 0.00 0.00 0.00
0.00 0.00 0.00 0.01 0.02 0.02 0.02 0.01 0.00 0.00 0.00 0.00 0.01 0.02 0.03 0.04 0.05 0.05 0.03 0.02 0.03 0.03 0.01 0.00 0.00 0.00 0.00 0.00 0.00 0.00 0.00 0.00 0.00 0.00 0.00 0.00 0.00 0.00
0.00 0.00 0.00 0.01 0.03 0.03 0.02 0.02 0.01 0.00 0.00 0.00 0.00 0.01 0.03 0.06 0.08 0.11 0.12 0.09 0.08 0.06 0.03 0.02 0.01 0.00 0.00 0.00 0.00 0.00 0.00 0.00 0.00 0.00 0.00 0.00 0.00 0.00
0.00 0.00 0.01 0.02 0.04 0.04 0.02 0.01 0.01 0.00 0.00 0.00 0.01 0.03 0.07 0.13 0.16 0.17 0.18 0.14 0.11 0.07 0.03 0.02 0.02 0.00 0.00 0.00 0.00 0.00 0.00 0.00 0.00 0.00 0.00 0.00 0.00 0.00
0.00 0.00 0.02 0.04 0.06 0.05 0.03 0.01 0.01 0.00 0.00 0.00 0.02 0.04 0.07 0.10 0.15 0.13 0.12 0.10 0.08 0.05 0.02 0.01 0.01 0.01 0.00 0.00 0.00 0.00 0.00 0.00 0.00 0.00 0.00 0.00 0.00 0.00
0.00 0.00 0.03 0.06 0.09 0.08 0.05 0.03 0.01 0.01 0.00 0.00 0.02 0.04 0.06 0.08 0.09 0.10 0.10 0.06 0.03 0.02 0.01 0.00 0.00 0.00 0.00 0.00 0.00 0.00 0.00 0.00 0.00 0.00 0.00 0.00 0.00 0.00
0.00 0.01 0.04 0.09 0.13 0.14 0.12 0.08 0.04 0.01 0.01 0.01 0.02 0.03 0.04 0.05 0.06 0.06 0.06 0.04 0.01 0.00 0.00 0.00 0.00 0.00 0.00 0.00 0.00 0.00 0.00 0.00 0.00 0.00 0.00 0.00 0.00 0.00
0.00 0.01 0.05 0.14 0.20 0.20 0.19 0.15 0.07 0.02 0.02 0.02 0.02 0.02 0.02 0.02 0.03 0.03 0.03 0.01 0.00 0.00 0.00 0.00 0.00 0.00 0.00 0.00 0.00 0.00 0.00 0.00 0.00 0.00 0.00 0.00 0.00 0.00
0.00 0.02 0.07 0.19 0.31 0.32 0.28 0.24 0.12 0.05 0.03 0.02 0.02 0.02 0.02 0.02 0.02 0.02 0.01 0.01 0.00 0.00 0.00 0.00 0.00 0.00 0.00 0.00 0.00 0.00 0.00 0.00 0.00 0.00 0.00 0.00 0.00 0.00
0.00 0.01 0.07 0.20 0.37 0.46 0.43 0.33 0.20 0.09 0.05 0.04 0.03 0.02 0.02 0.02 0.02 0.02 0.02 0.01 0.00 0.00 0.00 0.00 0.00 0.00 0.00 0.00 0.00 0.00 0.00 0.00 0.00 0.00 0.00 0.00 0.00 0.00
0.00 0.01 0.06 0.17 0.32 0.49 0.56 0.46 0.26 0.11 0.06 0.04 0.03 0.02 0.02 0.01 0.02 0.02 0.02 0.02 0.01 0.00 0.00 0.00 0.00 0.00 0.00 0.00 0.00 0.00 0.00 0.00 0.00 0.00 0.00 0.00 0.00 0.00
0.00 0.01 0.03 0.12 0.24 0.41 0.56 0.51 0.28 0.11 0.06 0.04 0.03 0.02 0.01 0.01 0.01 0.01 0.01 0.01 0.01 0.00 0.00 0.00 0.00 0.00 0.00 0.00 0.00 0.00 0.00 0.00 0.00 0.00 0.00 0.00 0.00 0.00
0.00 0.01 0.02 0.07 0.18 0.33 0.48 0.49 0.30 0.13 0.07 0.04 0.03 0.02 0.01 0.01 0.01 0.01 0.00 0.00 0.00 0.00 0.00 0.00 0.00 0.00 0.00 0.00 0.00 0.00 0.00 0.00 0.00 0.00 0.00 0.00 0.00 0.00
0.00 0.01 0.02 0.07 0.16 0.29 0.40 0.40 0.29 0.14 0.07 0.03 0.02 0.01 0.01 0.00 0.00 0.00 0.00 0.00 0.00 0.00 0.00 0.00 0.00 0.00 0.00 0.00 0.00 0.00 0.00 0.00 0.00 0.00 0.00 0.00 0.00 0.00
0.02 0.02 0.03 0.07 0.15 0.26 0.32 0.31 0.23 0.12 0.05 0.03 0.01 0.01 0.00 0.00 0.00 0.00 0.00 0.00 0.00 0.00 0.00 0.00 0.00 0.00 0.00 0.00 0.00 0.00 0.00 0.00 0.00 0.00 0.00 0.00 0.00 0.00
0.03 0.03 0.03 0.07 0.13 0.20 0.23 0.21 0.15 0.08 0.03 0.02 0.01 0.00 0.00 0.00 0.00 0.00 0.00 0.00 0.00 0.00 0.00 0.00 0.00 0.00 0.00 0.00 0.00 0.00 0.00 0.00 0.00 0.00 0.00 0.00 0.00 0.00
MSLP
1009.65 1009.94 1010.31 1010.69 1011.07 1011.39 1011.65 1011.81 1011.87 1011.84 1011.72 1011.53 1011.28 1011.00 1010.70 1010.40 1010.12 1009.88 1009.70 1009.59 1009.56 1009.62 1009.76 1009.96 1010.23 1010.55 1010.89 1011.26 1011.63 1012.02 1012.40 1012.78 1013.14 1013.46 1013.74 1013.95 1014.10 1014.17
1009.10 1009.34 1009.65 1010.00 1010.36 1010.70 1011.00 1011.23 1011.38 1011.46 1011.45 1011.38 1011.24 1011.05 1010.82 1010.59 1010.36 1010.15 1010.00 1009.91 1009.91 1009.98 1010.13 1010.35 1010.61 1010.91 1011.24 1011.57 1011.90 1012.23 1012.56 1012.88 1013.18 1013.45 1013.69 1013.87 1014.00 1014.05
1008.62 1008.80 1009.05 1009.34 1009.67 1010.00 1010.31 1010.59 1010.83 1011.00 1011.11 1011.15 1011.13 1011.06 1010.94 1010.80 1010.65 1010.53 1010.44 1010.42 1010.46 1010.58 1010.76 1010.99 1011.26 1011.55 1011.84 1012.13 1012.40 1012.67 1012.92 1013.17 1013.42 1013.65 1013.85 1014.03 1014.15 1014.22
1008.17 1008.31 1008.50 1008.74 1009.02 1009.33 1009.64 1009.95 1010.23 1010.48 1010.69 1010.84 1010.94 1010.98 1010.98 1010.96 1010.93 1010.91 1010.93 1010.99 1011.12 1011.30 1011.54 1011.80 1012.08 1012.36 1012.62 1012.86 1013.07 1013.27 1013.45 1013.64 1013.83 1014.02 1014.22 1014.39 1014.54 1014.65
1007.75 1007.85 1008.00 1008.19 1008.43 1008.71 1009.00 1009.31 1009.62 1009.92 1010.19 1010.42 1010.61 1010.77 1010.89 1010.98 1011.08 1011.19 1011.33 1011.52 1011.75 1012.03 1012.34 1012.66 1012.96 1013.24 1013.49 1013.68 1013.84 1013.97 1014.09 1014.22 1014.37 1014.54 1014.73 1014.93 1015.12 1015.28
1007.32 1007.41 1007.53 1007.69 1007.90 1008.14 1008.41 1008.70 1009.01 1009.31 1009.61 1009.89 1010.15 1010.39 1010.61 1010.82 1011.04 1011.29 1011.57 1011.90 1012.26 1012.65 1013.05 1013.44 1013.79 1014.09 1014.33 1014.50 1014.62 1014.71 1014.79 1014.88 1015.00 1015.17 1015.36 1015.59 1015.82 1016.04
1006.86 1006.96 1007.08 1007.23 1007.40 1007.61 1007.85 1008.11 1008.38 1008.67 1008.96 1009.26 1009.55 1009.84 1010.13 1010.45 1010.79 1011.17 1011.59 1012.05 1012.55 1013.07 1013.58 1014.05 1014.47 1014.81 1015.07 1015.25 1015.36 1015.43 1015.49 1015.56 1015.68 1015.84 1016.05 1016.31 1016.58 1016.85
1006.39 1006.50 1006.63 1006.77 1006.93 1007.11 1007.31 1007.53 1007.76 1008.01 1008.27 1008.54 1008.84 1009.16 1009.51 1009.90 1010.34 1010.84 1011.39 1011.98 1012.62 1013.25 1013.87 1014.44 1014.94 1015.34 1015.65 1015.86 1015.99 1016.08 1016.15 1016.23 1016.35 1016.52 1016.75 1017.03 1017.33 1017.63
1005.90 1006.04 1006.18 1006.33 1006.48 1006.63 1006.80 1006.96 1007.14 1007.34 1007.55 1007.80 1008.08 1008.41 1008.80 1009.25 1009.77 1010.37 1011.02 1011.74 1012.48 1013.23 1013.95 1014.62 1015.20 1015.68 1016.05 1016.32 1016.50 1016.63 1016.73 1016.84 1016.99 1017.18 1017.42 1017.71 1018.02 1018.33
1005.42 1005.58 1005.74 1005.89 1006.03 1006.17 1006.30 1006.42 1006.55 1006.70 1006.87 1007.09 1007.36 1007.69 1008.11 1008.60 1009.19 1009.86 1010.60 1011.40 1012.23 1013.06 1013.86 1014.61 1015.26 1015.82 1016.26 1016.60 1016.86 1017.05 1017.22 1017.38 1017.56 1017.77 1018.03 1018.31 1018.62 1018.92
1004.97 1005.14 1005.31 1005.46 1005.60 1005.72 1005.81 1005.91 1006.00 1006.11 1006.26 1006.46 1006.73 1007.08 1007.53 1008.06 1008.70 1009.42 1010.21 1011.07 1011.95 1012.83 1013.68 1014.47 1015.18 1015.80 1016.31 1016.73 1017.07 1017.34 1017.58 1017.80 1018.02 1018.27 1018.53 1018.81 1019.10 1019.37
1004.55 1004.74 1004.91 1005.06 1005.18 1005.28 1005.36 1005.43 1005.50 1005.60 1005.75 1005.96 1006.25 1006.64 1007.12 1007.70 1008.37 1009.13 1009.95 1010.82 1011.71 1012.59 1013.45 1014.26 1014.99 1015.65 1016.22 1016.71 1017.12 1017.48 1017.79 1018.08 1018.36 1018.64 1018.91 1019.19 1019.45 1019.69
1004.17 1004.36 1004.52 1004.67 1004.77 1004.85 1004.92 1004.98 1005.06 1005.17 1005.35 1005.60 1005.94 1006.38 1006.91 1007.54 1008.24 1009.02 1009.84 1010.69 1011.55 1012.41 1013.23 1014.01 1014.74 1015.41 1016.01 1016.55 1017.03 1017.46 1017.85 1018.21 1018.55 1018.86 1019.15 1019.42 1019.67 1019.88
1003.80 1003.99 1004.15 1004.28 1004.37 1004.44 1004.49 1004.56 1004.65 1004.81 1005.03 1005.35 1005.76 1006.27 1006.87 1007.54 1008.28 1009.06 1009.87 1010.68 1011.49 1012.27 1013.03 1013.76 1014.44 1015.09 1015.70 1016.27 1016.80 1017.29 1017.75 1018.18 1018.57 1018.92 1019.24 1019.51 1019.75 1019.94
1003.45 1003.64 1003.79 1003.89 1003.97 1004.02 1004.07 1004.15 1004.28 1004.48 1004.78 1005.17 1005.67 1006.26 1006.93 1007.66 1008.43 1009.21 1009.98 1010.74 1011.48 1012.18 1012.85 1013.50 1014.12 1014.73 1015.32 1015.90 1016.46 1017.00 1017.52 1018.00 1018.44 1018.83 1019.17 1019.46 1019.69 1019.88
1003.09 1003.27 1003.41 1003.50 1003.56 1003.60 1003.66 1003.76 1003.92 1004.19 1004.55 1005.03 1005.61 1006.29 1007.03 1007.81 1008.60 1009.37 1010.12 1010.82 1011.48 1012.09 1012.67 1013.24 1013.79 1014.34 1014.91 1015.48 1016.05 1016.63 1017.18 1017.70 1018.18 1018.61 1018.97 1019.27 1019.51 1019.70
1002.73 1002.91 1003.03 1003.10 1003.15 1003.18 1003.25 1003.37 1003.58 1003.90 1004.33 1004.89 1005.55 1006.30 1007.09 1007.91 1008.72 1009.50 1010.21 1010.87 1011.46 1011.99 1012.50 1012.98 1013.47 1013.98 1014.51 1015.06 1015.64 1016.22 1016.80 1017.34 1017.85 1018.29 1018.67 1018.98 1019.22 1019.41
1002.38 1002.55 1002.65 1002.72 1002.75 1002.79 1002.87 1003.02 1003.26 1003.63 1004.12 1004.73 1005.45 1006.25 1007.09 1007.94 1008.76 1009.52 1010.22 1010.84 1011.39 1011.87 1012.32 1012.76 1013.20 1013.67 1014.17 1014.70 1015.27 1015.85 1016.42 1016.98 1017.48 1017.93 1018.31 1018.62 1018.85 1019.03
1002.05 1002.20 1002.30 1002.36 1002.40 1002.45 1002.54 1002.71 1002.99 1003.39 1003.91 1004.56 1005.32 1006.14 1007.00 1007.86 1008.69 1009.45 1010.14 1010.75 1011.27 1011.74 1012.17 1012.58 1013.00 1013.44 1013.92 1014.44 1014.99 1015.55 1016.11 1016.64 1017.13 1017.56 1017.92 1018.21 1018.42 1018.58
1001.76 1001.90 1001.99 1002.05 1002.10 1002.17 1002.28 1002.48 1002.78 1003.20 1003.75 1004.41 1005.17 1006.00 1006.86 1007.72 1008.54 1009.30 1009.99 1010.60 1011.13 1011.61 1012.04 1012.46 1012.88 1013.32 1013.79 1014.29 1014.81 1015.34 1015.87 1016.36 1016.81 1017.19 1017.52 1017.77 1017.95 1018.08
1001.50 1001.63 1001.72 1001.79 1001.86 1001.96 1002.11 1002.33 1002.66 1003.09 1003.64 1004.30 1005.05 1005.86 1006.70 1007.54 1008.36 1009.12 1009.81 1010.44 1011.00 1011.50 1011.97 1012.41 1012.85 1013.30 1013.76 1014.24 1014.73 1015.21 1015.68 1016.11 1016.50 1016.83 1017.10 1017.30 1017.44 1017.53
1001.29 1001.40 1001.50 1001.59 1001.69 1001.82 1002.01 1002.26 1002.61 1003.06 1003.60 1004.25 1004.97 1005.75 1006.56 1007.38 1008.17 1008.93 1009.64 1010.29 1010.88 1011.42 1011.93 1012.40 1012.87 1013.33 1013.78 1014.23 1014.68 1015.10 1015.50 1015.86 1016.18 1016.43 1016.64 1016.78 1016.88 1016.94
1001.10 1001.20 1001.31 1001.43 1001.56 1001.74 1001.97 1002.26 1002.63 1003.09 1003.63 1004.25 1004.95 1005.69 1006.47 1007.25 1008.03 1008.78 1009.49 1010.16 1010.78 1011.36 1011.90 1012.41 1012.89 1013.35 1013.79 1014.20 1014.59 1014.95 1015.28 1015.56 1015.79 1015.97 1016.11 1016.20 1016.25 1016.28
Thickness
5669 5672 5674 5675 5676 5678 5679 5679 5678 5677 5679 5685 5688 5693 5695 5696 5696 5697 5698 5698 5700 5702 5704 5704 5705 5704 5704 5703 5702 5702 5701 5702 5703 5705 5705 5707 5709 5711
5660 5663 5666 5668 5670 5672 5674 5676 5676 5674 5674 5678 5682 5686 5689 5690 5690 5690 5689 5689 5690 5692 5694 5695 5695 5695 5695 5694 5693 5693 5693 5694 5695 5697 5699 5701 5704 5706
5650 5654 5657 5660 5663 5665 5668 5671 5672 5671 5671 5673 5675 5679 5682 5683 5683 5682 5681 5680 5680 5681 5683 5684 5685 5685 5686 5685 5684 5684 5684 5685 5686 5688 5690 5693 5696 5698
5639 5644 5648 5651 5654 5658 5661 5664 5667 5668 5668 5667 5668 5671 5675 5676 5676 5674 5672 5670 5669 5670 5672 5673 5674 5675 5676 5676 5676 5675 5676 5677 5678 5679 5681 5683 5685 5687
5627 5632 5637 5640 5645 5650 5654 5658 5661 5662 5663 5662 5662 5665 5668 5669 5668 5666 5662 5659 5658 5658 5659 5661 5662 5664 5665 5666 5666 5666 5667 5667 5668 5669 5670 5672 5674 5675
5613 5620 5623 5628 5634 5641 5645 5651 5654 5656 5657 5657 5657 5659 5662 5663 5661 5658 5653 5649 5647 5646 5647 5648 5649 5651 5653 5655 5655 5655 5656 5657 5658 5659 5659 5660 5661 5662
5597 5605 5610 5616 5624 5631 5637 5643 5647 5649 5651 5653 5654 5655 5657 5657 5656 5652 5647 5640 5635 5635 5636 5636 5638 5640 5641 5643 5644 5644 5645 5646 5646 5646 5647 5647 5649 5650
5581 5589 5597 5605 5614 5621 5628 5636 5642 5645 5648 5650 5652 5654 5655 5655 5652 5647 5642 5637 5630 5625 5627 5624 5627 5628 5629 5631 5632 5633 5634 5634 5634 5634 5635 5636 5637 5638
5567 5574 5584 5594 5603 5611 5620 5629 5636 5642 5647 5650 5652 5654 5654 5654 5649 5642 5639 5635 5630 5623 5622 5616 5616 5618 5619 5620 5622 5623 5622 5622 5623 5623 5624 5626 5627 5628
5555 5562 5571 5580 5590 5600 5610 5620 5629 5636 5641 5645 5650 5653 5654 5653 5650 5644 5636 5628 5621 5617 5618 5612 5610 5609 5609 5610 5612 5613 5613 5613 5613 5614 5615 5616 5617 5618
5546 5552 5559 5569 5580 5590 5601 5611 5620 5627 5633 5639 5644 5648 5649 5648 5645 5637 5630 5625 5616 5610 5611 5609 5604 5603 5602 5601 5602 5604 5605 5605 5604 5605 5606 5607 5608 5608
5539 5545 5551 5558 5567 5578 5591 5603 5612 5620 5626 5631 5636 5639 5641 5641 5640 5639 5634 5626 5618 5608 5606 5605 5601 5600 5595 5593 5594 5595 5597 5597 5596 5596 5597 5598 5599 5600
5532 5537 5543 5548 5557 5569 5581 5595 5607 5614 5619 5625 5629 5631 5632 5632 5631 5631 5630 5627 5621 5615 5608 5605 5599 5598 5597 5591 5588 5588 5589 5589 5588 5587 5588 5590 5592 5594
5527 5533 5537 5541 5548 5559 5572 5586 5596 5605 5613 5618 5622 5624 5625 5625 5624 5621 5620 5618 5617 5616 5609 5606 5601 5597 5596 5591 5587 5582 5582 5583 5583 5583 5583 5584 5587 5588
5523 5527 5531 5535 5541 5552 5564 5577 5588 5599 5607 5612 5616 5618 5618 5618 5616 5613 5611 5609 5608 5605 5601 5600 5600 5596 5595 5592 5587 5582 5579 5577 5579 5580 5582 5584 5585 5586
5518 5521 5524 5528 5535 5546 5558 5570 5584 5595 5603 5607 5609 5609 5609 5609 5609 5608 5606 5604 5599 5595 5593 5593 5593 5593 5590 5587 5585 5580 5579 5578 5577 5579 5581 5582 5583 5584
5515 5517 5521 5525 5531 5543 5555 5567 5579 5588 5594 5598 5600 5601 5602 5602 5601 5600 5600 5599 5597 5593 5589 5585 5585 5585 5586 5586 5582 5580 5578 5579 5579 5579 5579 5581 5581 5582
5512 5517 5520 5523 5529 5540 5552 5563 5574 5583 5588 5592 5594 5596 5597 5597 5595 5594 5595 5595 5595 5591 5588 5585 5583 5583 5582 5579 5581 5581 5580 5579 5578 5578 5579 5580 5581 5580
5511 5515 5517 5520 5527 5537 5548 5559 5569 5577 5582 5587 5589 5590 5592 5591 5590 5590 5590 5591 5591 5589 5587 5585 5586 5587 5587 5584 5579 5579 5581 5578 5576 5576 5576 5578 5579 5578
5510 5512 5515 5518 5524 5534 5545 5554 5564 5570 5576 5582 5584 5585 5587 5587 5587 5587 5587 5588 5587 5584 5582 5582 5586 5589 5591 5590 5584 5579 5578 5578 5576 5575 5574 5573 5572 5570
5508 5511 5514 5518 5524 5533 5543 5552 5561 5568 5573 5577 5580 5582 5584 5585 5584 5583 5582 5579 5582 5582 5581 5581 5582 5583 5586 5584 5582 5579 5577 5575 5576 5574 5571 5569 5568 5566
5508 5512 5516 5519 5525 5533 5542 5551 5559 5566 5571 5575 5577 5579 5580 5581 5581 5579 5578 5578 5579 5579 5578 5575 5574 5578 5580 5581 5581 5579 5576 5572 5569 5568 5566 5567 5565 5563
5509 5513 5518 5522 5527 5534 5542 5551 5559 5565 5570 5573 5574 5576 5577 5578 5578 5577 5575 5575 5574 5573 5571 5569 5569 5573 5575 5576 5577 5576 5573 5570 5567 5563 5562 5561 5558 5556